FW7404 Weather Reports


Display with metric or nautical units.
time (UTC)temp
F
wind
direction
speed
MPH
gust
MPH
rain 1hr
in
rain 24hr
in
rain mn
in
humidity
%
barometer
mb
20260506201816 52 351 3.0 6.0 0.00 0.00 0.00 44 1012.1
20260506201314 52 353 3.0 3.0 0.00 0.00 0.00 44 1012.4
20260506200811 52 325 3.0 9.0 0.00 0.00 0.00 45 1012.2
20260506200307 52 19 4.0 5.0 0.00 0.00 0.00 44 1012.4
20260506195803 52 242 2.0 6.0 0.00 0.00 0.00 45 1012.5
20260506195300 52 1 5.0 8.0 0.00 0.00 0.00 45 1012.4
20260506194757 52 317 2.0 3.0 0.00 0.00 0.00 45 1012.4
20260506194253 53 39 5.0 8.0 0.00 0.00 0.00 44 1012.1
20260506193751 51 355 2.0 6.0 0.00 0.00 0.00 44 1012.4
20260506193242 53 301 5.0 7.0 0.00 0.00 0.00 43 1012.6
20260506192738 54 326 3.0 8.0 0.00 0.00 0.00 42 1012.7
20260506192236 52 274 3.0 5.0 0.00 0.00 0.00 46 1012.8
20260506191732 51 132 1.0 7.0 0.00 0.00 0.00 45 1012.7
20260506191228 51 268 6.0 8.0 0.00 0.00 0.00 44 1012.8
20260506190726 51 345 4.0 10.0 0.00 0.00 0.00 44 1012.6
20260506190222 51 337 4.0 6.0 0.00 0.00 0.00 44 1012.7
20260506185720 51 304 5.0 7.0 0.00 0.00 0.00 45 1012.7
20260506185216 51 270 2.0 3.0 0.00 0.00 0.00 44 1012.5
20260506184714 51 302 7.0 9.0 0.00 0.00 0.00 43 1012.5
20260506184210 52 336 6.0 7.0 0.00 0.00 0.00 44 1012.5
20260506183707 52 352 3.0 5.0 0.00 0.00 0.00 44 1012.4
20260506183203 52 273 1.0 6.0 0.00 0.00 0.00 43 1012.5
20260506182701 52 337 2.0 3.0 0.00 0.00 0.00 44 1012.4
20260506182158 52 343 5.0 5.0 0.00 0.00 0.00 45 1012.2
20260506181655 52 286 3.0 6.0 0.00 0.00 0.00 45 1012.4
20260506181152 52 295 5.0 7.0 0.00 0.00 0.00 43 1012.5
20260506180649 52 2 4.0 6.0 0.00 0.00 0.00 44 1012.4
20260506180146 51 324 3.0 6.0 0.00 0.00 0.00 45 1012.6
20260506175642 51 310 5.0 6.0 0.00 0.00 0.00 46 1012.6
20260506175139 51 306 3.0 6.0 0.00 0.00 0.00 47 1012.6
20260506174632 51 284 3.0 3.0 0.00 0.00 0.00 47 1012.7
20260506174128 51 277 4.0 7.0 0.00 0.00 0.00 46 1012.9
20260506173625 50 13 1.0 3.0 0.00 0.00 0.00 47 1012.8
20260506173122 51 309 5.0 10.0 0.00 0.00 0.00 46 1013.2
20260506172619 52 308 3.0 5.0 0.00 0.00 0.00 47 1013.0
20260506172115 51 232 5.0 7.0 0.00 0.00 0.00 46 1012.7
20260506171613 50 301 4.0 7.0 0.00 0.00 0.00 48 1012.9
20260506171110 50 326 3.0 8.0 0.00 0.00 0.00 48 1012.6
20260506170608 50 323 5.0 7.0 0.00 0.00 0.00 48 1012.8
20260506170105 50 234 3.0 6.0 0.00 0.00 0.00 49 1012.8
20260506165603 50 313 3.0 9.0 0.00 0.00 0.00 48 1012.8
20260506165053 50 306 4.0 7.0 0.00 0.00 0.00 48 1012.9
20260506164551 50 335 7.0 9.0 0.00 0.00 0.00 49 1012.7
20260506164048 51 325 3.0 5.0 0.00 0.00 0.00 49 1012.7
20260506163543 50 345 1.0 5.0 0.00 0.00 0.00 49 1012.6
20260506163039 50 24 2.0 7.0 0.00 0.00 0.00 50 1012.6
20260506162536 50 282 1.0 7.0 0.00 0.00 0.00 50 1012.4
20260506162033 50 350 9.0 13.0 0.00 0.00 0.00 48 1012.8
20260506161530 50 306 5.0 8.0 0.00 0.00 0.00 47 1012.7
20260506161022 51 334 8.0 9.0 0.00 0.00 0.00 48 1012.5
20260506160520 50 301 4.0 6.0 0.00 0.00 0.00 49 1012.6
20260506160017 50 300 5.0 7.0 0.00 0.00 0.00 47 1012.5
20260506155515 50 304 7.0 11.0 0.00 0.00 0.00 48 1012.5
20260506153651 51 279 5.0 8.0 0.00 0.00 0.00 47 1012.2
20260506153149 51 293 2.0 7.0 0.00 0.00 0.00 46 1012.0
20260506152646 52 293 5.0 7.0 0.00 0.00 0.00 45 1012.0
20260506152143 51 41 2.0 5.0 0.00 0.00 0.00 49 1012.0
20260506151642 51 289 5.0 7.0 0.00 0.00 0.00 49 1012.2
20260506151138 50 298 3.0 9.0 0.00 0.00 0.00 49 1012.2
20260506150635 51 301 5.0 11.0 0.00 0.00 0.00 48 1012.0
20260506150132 51 304 6.0 10.0 0.00 0.00 0.00 47 1011.9
20260506145629 50 311 3.0 5.0 0.00 0.00 0.00 50 1012.0
20260506145126 51 316 3.0 11.0 0.00 0.00 0.00 49 1012.1
20260506144623 50 350 4.0 6.0 0.00 0.00 0.00 51 1011.9
20260506144120 50 272 7.0 16.0 0.00 0.00 0.00 49 1012.0
20260506143618 52 330 6.0 11.0 0.00 0.00 0.00 51 1011.7
20260506143116 51 57 2.0 9.0 0.00 0.00 0.00 60 1011.6
20260506142614 51 354 4.0 7.0 0.00 0.00 0.00 55 1011.5
20260506142112 51 285 5.0 8.0 0.00 0.00 0.00 57 1011.8
20260506141609 51 310 5.0 9.0 0.00 0.00 0.00 53 1011.4
20260506141107 51 336 3.0 5.0 0.00 0.00 0.00 54 1011.5
20260506140604 50 284 4.0 5.0 0.00 0.00 0.00 55 1011.4
20260506135558 50 292 3.0 5.0 0.00 0.00 0.00 57 1011.3
20260506135054 51 288 3.0 7.0 0.00 0.00 0.00 56 1011.3
20260506134551 51 300 3.0 6.0 0.00 0.00 0.00 56 1011.1
20260506134047 50 200 2.0 7.0 0.00 0.00 0.00 56 1011.2
20260506133544 49 321 3.0 7.0 0.00 0.00 0.00 56 1011.1
20260506133041 49 336 4.0 7.0 0.00 0.00 0.00 54 1011.4
20260506132538 50 299 3.0 7.0 0.00 0.00 0.00 56 1011.0
20260506132036 49 345 4.0 5.0 0.00 0.00 0.00 57 1011.0
20260506131532 49 331 4.0 6.0 0.00 0.00 0.00 59 1011.1
20260506131029 49 64 0.0 3.0 0.00 0.00 0.00 60 1010.8
20260506130526 49 12 3.0 3.0 0.00 0.00 0.00 61 1010.9
20260506130023 48 328 5.0 6.0 0.00 0.00 0.00 61 1010.9
20260506125521 49 128 2.0 3.0 0.00 0.00 0.00 61 1010.8
20260506125019 48 325 2.0 5.0 0.00 0.00 0.00 62 1010.7
20260506124517 48 197 2.0 2.0 0.00 0.00 0.00 62 1010.8
20260506124014 47 281 2.0 3.0 0.00 0.00 0.00 63 1010.5
20260506123512 47 352 2.0 3.0 0.00 0.00 0.00 63 1010.6
20260506123010 47 307 2.0 2.0 0.00 0.00 0.00 63 1010.3
20260506122506 46 354 2.0 3.0 0.00 0.00 0.00 64 1010.4
20260506122005 46 264 3.0 3.0 0.00 0.00 0.00 65 1010.6
20260506121501 45 333 0.0 2.0 0.00 0.00 0.00 67 1010.5
20260506120958 44 295 2.0 3.0 0.00 0.00 0.00 67 1010.3
20260506120456 45 307 1.0 2.0 0.00 0.00 0.00 67 1010.3
20260506115953 45 322 1.0 2.0 0.00 0.00 0.00 67 1010.4
20260506115451 44 316 1.0 2.0 0.00 0.00 0.00 66 1010.5
20260506114949 45 295 1.0 1.0 0.00 0.00 0.00 67 1010.6
20260506114446 44 313 1.0 2.0 0.00 0.00 0.00 67 1010.2
20260506113944 44 309 1.0 2.0 0.00 0.00 0.00 67 1010.1
20260506113442 44 324 1.0 1.0 0.00 0.00 0.00 67 1010.1
20260506112938 44 302 1.0 2.0 0.00 0.00 0.00 66 1010.0
20260506112436 44 307 0.0 1.0 0.00 0.00 0.00 66 1009.7
20260506111933 44 287 1.0 1.0 0.00 0.00 0.00 66 1010.1
20260506111431 44 291 1.0 1.0 0.00 0.00 0.00 66 1010.0
20260506110928 44 310 1.0 1.0 0.00 0.00 0.00 65 1010.0
20260506110426 44 310 1.0 2.0 0.00 0.00 0.00 65 1009.8
20260506105922 44 328 0.0 1.0 0.00 0.00 0.00 65 1009.7
20260506105418 44 330 2.0 2.0 0.00 0.00 0.00 64 1009.6
20260506104916 45 321 0.0 2.0 0.00 0.00 0.00 63 1009.7
20260506104414 45 307 1.0 2.0 0.00 0.00 0.00 63 1010.0
20260506103911 45 321 3.0 3.0 0.00 0.00 0.00 62 1009.5
20260506103409 45 297 2.0 3.0 0.00 0.00 0.00 61 1009.4
20260506102905 45 339 2.0 3.0 0.00 0.00 0.00 61 1009.5
20260506102404 46 310 2.0 3.0 0.00 0.00 0.00 60 1009.4
20260506101901 46 309 5.0 6.0 0.00 0.00 0.00 60 1009.4
20260506101357 46 319 1.0 5.0 0.00 0.00 0.00 60 1009.5
20260506100854 46 313 2.0 3.0 0.00 0.00 0.00 61 1009.5
20260506100353 46 295 1.0 3.0 0.00 0.00 0.00 61 1009.2
20260506095850 46 305 2.0 2.0 0.00 0.00 0.00 61 1009.2
20260506095348 46 306 1.0 2.0 0.00 0.00 0.00 61 1009.4
20260506094845 46 312 2.0 2.0 0.00 0.00 0.00 60 1009.1
20260506094343 46 313 1.0 2.0 0.00 0.00 0.00 60 1009.1
20260506093841 46 317 1.0 2.0 0.00 0.00 0.00 60 1008.9
20260506093338 46 336 1.0 3.0 0.00 0.00 0.00 60 1008.7
20260506092835 46 334 3.0 3.0 0.00 0.00 0.00 60 1008.9
20260506092333 46 324 1.0 2.0 0.00 0.00 0.00 60 1008.9
20260506091830 46 304 1.0 2.0 0.00 0.00 0.00 59 1009.1
20260506091328 46 305 2.0 2.0 0.00 0.00 0.00 59 1009.0
20260506090825 46 315 2.0 2.0 0.00 0.00 0.00 59 1009.3
20260506090322 47 305 1.0 3.0 0.00 0.00 0.00 58 1008.9
20260506085819 47 299 3.0 3.0 0.00 0.00 0.00 58 1008.7
20260506085315 47 303 2.0 3.0 0.00 0.00 0.00 58 1008.4
20260506084812 47 336 1.0 2.0 0.00 0.00 0.00 58 1008.4
20260506084308 47 335 3.0 3.0 0.00 0.00 0.00 58 1008.6
20260506083805 47 312 2.0 2.0 0.00 0.00 0.00 58 1008.4
20260506083303 47 316 2.0 3.0 0.00 0.00 0.00 58 1008.7
20260506082800 47 320 1.0 3.0 0.00 0.00 0.00 58 1008.8
20260506082255 47 289 2.0 3.0 0.00 0.00 0.00 58 1008.8
20260506081753 47 325 3.0 3.0 0.00 0.00 0.00 58 1008.6
20260506081251 47 306 1.0 2.0 0.00 0.00 0.00 59 1008.4
20260506080748 47 314 2.0 2.0 0.00 0.00 0.00 58 1008.4
20260506080244 47 277 2.0 3.0 0.00 0.00 0.00 58 1008.7
20260506073228 47 289 3.0 3.0 0.00 0.00 0.00 59 1008.8
20260506072725 47 288 1.0 2.0 0.00 0.00 0.00 59 1008.8
20260506072223 47 317 1.0 3.0 0.00 0.00 0.00 59 1008.8
20260506071720 47 317 1.0 2.0 0.00 0.00 0.00 59 1008.4
20260506071218 47 315 1.0 3.0 0.00 0.00 0.00 59 1008.1
20260506070715 47 333 2.0 3.0 0.00 0.00 0.00 58 1008.4
20260506070212 48 319 1.0 2.0 0.00 0.00 0.00 58 1008.4
20260506062149 48 292 2.0 2.0 0.00 0.00 0.00 59 1008.7
20260506061645 48 285 1.0 2.0 0.00 0.00 0.00 59 1009.0
20260506061142 48 290 2.0 3.0 0.00 0.00 0.00 59 1008.9
20260506060641 48 303 1.0 3.0 0.00 0.00 0.00 58 1009.1
20260506060137 48 284 1.0 5.0 0.00 0.00 0.00 59 1009.1
20260506051109 48 294 2.0 2.0 0.00 0.00 0.00 60 1008.7
20260506050608 48 297 1.0 2.0 0.00 0.00 0.00 60 1008.8
20260506050105 48 315 1.0 2.0 0.00 0.00 0.00 59 1008.9
20260506045058 48 292 1.0 2.0 0.00 0.00 0.00 60 1008.8
20260506044556 48 302 1.0 1.0 0.00 0.00 0.00 60 1008.8
20260506044052 48 293 0.0 1.0 0.00 0.00 0.00 61 1008.4
20260506043549 48 301 0.0 1.0 0.00 0.00 0.00 60 1008.6
20260506043048 48 295 0.0 1.0 0.00 0.00 0.00 61 1008.8
20260506042547 48 304 1.0 1.0 0.00 0.00 0.00 60 1008.8
20260506042044 48 274 1.0 2.0 0.00 0.00 0.00 58 1008.8
20260506041543 48 289 1.0 1.0 0.00 0.00 0.00 59 1008.6
20260506041039 48 293 1.0 2.0 0.00 0.00 0.00 59 1008.8
20260506040537 48 270 2.0 2.0 0.00 0.00 0.00 59 1008.6
20260506040032 48 304 1.0 2.0 0.00 0.13 0.13 58 1008.4
20260506035530 48 297 0.0 1.0 0.00 0.13 0.13 60 1008.3
20260506035026 48 297 0.0 0.0 0.00 0.13 0.13 61 1008.3
20260506034524 48 296 0.0 0.0 0.00 0.13 0.13 60 1008.6
20260506034020 48 290 0.0 1.0 0.00 0.13 0.13 62 1008.6
20260506033518 48 278 0.0 0.0 0.00 0.13 0.13 62 1008.6
20260506033015 48 269 0.0 0.0 0.00 0.13 0.13 59 1008.3
20260506032512 48 262 0.0 0.0 0.00 0.13 0.13 57 1008.8
20260506032009 49 250 0.0 0.0 0.00 0.13 0.13 57 1008.4
20260506031507 49 249 0.0 0.0 0.00 0.13 0.13 58 1008.7
20260506031003 49 241 0.0 1.0 0.00 0.13 0.13 57 1008.9
20260506030501 49 258 1.0 2.0 0.00 0.13 0.13 55 1008.8
20260506025958 49 306 1.0 1.0 0.00 0.13 0.13 57 1008.7
20260506025455 49 310 0.0 1.0 0.00 0.13 0.13 56 1008.7
20260506024951 49 311 0.0 1.0 0.00 0.13 0.13 57 1008.4
20260506024448 49 296 0.0 0.0 0.00 0.13 0.13 57 1008.4
20260506023944 49 294 1.0 3.0 0.00 0.13 0.13 55 1008.8
20260506023441 49 279 0.0 0.0 0.00 0.13 0.13 56 1008.9
20260506022938 49 278 1.0 1.0 0.00 0.13 0.13 55 1008.8
20260506022435 49 224 2.0 2.0 0.00 0.13 0.13 56 1008.4
20260506021933 49 297 0.0 0.0 0.00 0.13 0.13 54 1008.8
20260506021430 50 298 0.0 1.0 0.00 0.13 0.13 53 1008.6
20260506020927 50 312 1.0 1.0 0.00 0.13 0.13 53 1008.6
20260506020425 50 295 0.0 1.0 0.00 0.13 0.13 53 1008.4
20260506015922 50 299 0.0 1.0 0.00 0.13 0.13 52 1008.7
20260506015420 50 271 1.0 2.0 0.00 0.13 0.13 51 1008.4
20260506014916 50 297 0.0 1.0 0.00 0.13 0.13 51 1008.4
20260506014413 50 288 1.0 2.0 0.00 0.13 0.13 50 1008.3
20260506013910 50 311 0.0 1.0 0.00 0.13 0.13 49 1008.2
20260506013408 50 308 2.0 3.0 0.00 0.13 0.13 49 1008.3
20260506012903 51 302 1.0 1.0 0.00 0.13 0.13 49 1008.1
20260506012400 51 315 1.0 1.0 0.00 0.13 0.13 47 1008.1
20260506011858 51 307 1.0 1.0 0.00 0.13 0.13 47 1008.0
20260506011355 51 304 4.0 5.0 0.00 0.13 0.13 46 1007.8
20260506010852 51 300 2.0 2.0 0.00 0.13 0.13 46 1008.0
20260506010350 51 268 2.0 3.0 0.00 0.13 0.13 47 1007.9
20260506005846 51 311 2.0 2.0 0.00 0.13 0.13 47 1007.9
20260506005343 51 324 4.0 6.0 0.00 0.13 0.13 46 1008.1
20260506004839 51 300 3.0 7.0 0.00 0.13 0.13 47 1008.0
20260506004337 51 301 2.0 3.0 0.00 0.13 0.13 49 1008.1
20260506003833 51 270 2.0 5.0 0.00 0.13 0.13 51 1008.2
20260506003329 51 317 1.0 2.0 0.00 0.13 0.13 48 1007.9
20260506002826 51 304 0.0 1.0 0.00 0.13 0.13 49 1008.0
20260506002322 52 304 2.0 2.0 0.00 0.13 0.13 47 1008.0
20260506001818 52 265 1.0 2.0 0.00 0.13 0.13 48 1008.0
20260506001315 52 246 1.0 3.0 0.00 0.13 0.13 48 1008.1
20260506000812 52 225 3.0 7.0 0.00 0.13 0.13 48 1007.7
20260506000310 52 314 2.0 3.0 0.00 0.13 0.13 51 1007.8
20260505235806 52 277 1.0 2.0 0.00 0.13 0.13 53 1007.7
20260505235305 52 277 2.0 5.0 0.00 0.13 0.13 51 1007.6
20260505234801 52 292 1.0 3.0 0.00 0.13 0.13 53 1007.7
20260505234259 52 297 1.0 2.0 0.00 0.13 0.13 53 1007.3
20260505233755 52 304 1.0 2.0 0.00 0.13 0.13 51 1007.3
20260505233253 53 296 0.0 2.0 0.00 0.13 0.13 52 1007.3
20260505232750 53 305 1.0 2.0 0.00 0.13 0.13 52 1007.3
20260505232247 53 312 2.0 3.0 0.00 0.13 0.13 51 1007.4
20260505231744 53 288 1.0 3.0 0.00 0.13 0.13 51 1007.3
20260505231243 53 299 2.0 3.0 0.00 0.13 0.13 51 1007.5
20260505230741 53 317 1.0 2.0 0.00 0.13 0.13 52 1007.4
20260505230237 53 309 0.0 3.0 0.00 0.13 0.13 52 1007.3
20260505225734 53 257 3.0 6.0 0.00 0.13 0.13 51 1007.3
20260505225231 53 304 3.0 5.0 0.00 0.13 0.13 51 1007.4
20260505224726 53 312 1.0 2.0 0.00 0.13 0.13 53 1007.4
20260505224224 53 282 2.0 5.0 0.00 0.13 0.13 51 1007.5
20260505223721 54 252 1.0 5.0 0.00 0.13 0.13 52 1007.4
20260505223217 54 307 1.0 2.0 0.00 0.13 0.13 53 1007.4
20260505222713 54 307 2.0 3.0 0.00 0.13 0.13 51 1007.3
20260505222209 54 302 3.0 3.0 0.00 0.13 0.13 51 1007.5
20260505221707 54 286 1.0 3.0 0.00 0.13 0.13 52 1007.5
20260505221203 54 284 1.0 6.0 0.00 0.13 0.13 51 1007.4
20260505220700 54 321 2.0 3.0 0.00 0.13 0.13 54 1007.2
20260505220158 54 328 3.0 5.0 0.00 0.13 0.13 53 1007.5
20260505215656 54 307 3.0 5.0 0.00 0.13 0.13 53 1007.5
20260505215154 55 264 2.0 6.0 0.00 0.13 0.13 55 1007.2
20260505214651 54 319 5.0 7.0 0.00 0.13 0.13 57 1007.4
20260505214148 55 270 5.0 9.0 0.00 0.13 0.13 58 1007.5
20260505213646 55 307 3.0 8.0 0.00 0.13 0.13 62 1007.4
20260505213142 55 299 2.0 5.0 0.00 0.13 0.13 65 1007.4
20260505212638 55 295 2.0 3.0 0.00 0.13 0.13 66 1007.3
20260505212136 55 292 3.0 3.0 0.00 0.13 0.13 66 1007.5
20260505211633 55 250 3.0 5.0 0.00 0.13 0.13 66 1007.6
20260505211130 54 327 2.0 5.0 0.00 0.13 0.13 66 1007.4
20260505210627 55 244 2.0 3.0 0.00 0.13 0.13 68 1007.6
20260505210123 54 278 3.0 5.0 0.00 0.13 0.13 69 1007.3
20260505205621 54 259 2.0 7.0 0.00 0.13 0.13 70 1007.5
20260505205119 54 287 2.0 5.0 0.00 0.13 0.13 70 1007.5
20260505204616 54 307 5.0 6.0 0.00 0.13 0.13 69 1007.4
20260505204113 53 303 1.0 6.0 0.00 0.13 0.13 70 1007.5
20260505203609 53 167 1.0 3.0 0.00 0.13 0.13 71 1007.4
20260505203107 53 263 3.0 7.0 0.00 0.13 0.13 71 1007.7
20260505202602 53 276 1.0 7.0 0.00 0.13 0.13 71 1007.8